This demonstration page uses our WeatherBlox Daily Observations layout. Learn more.

Left ArrowRight Arrow

Hourly Observations for April 7, 2020

Temp ( °F °C ) Dew Point ( °F °C ) Humidity (%) Winds ( mph kmh ) Pressure ( in mb ) Visibility ( mi km ) Precip ( " mm )
12:53 am 00:53 Clear 47 8.3 42 5.6 83 83 SE 3 6 30.03 1017 10 16 0.00 0.00
1:53 am 01:53 Clear 46 7.8 42 5.6 86 86 NNE 3 6 30.04 1017 10 16 0.00 0.00
2:53 am 02:53 Clear 44 6.7 41 5 89 89 Calm 30.06 1018 10 16 0.00 0.00
3:53 am 03:53 Mostly Cloudy 45 7.2 41 5 86 86 N 5 7 30.05 1018 10 16 0.00 0.00
4:53 am 04:53 Clear 44 6.7 41 5 89 89 N 5 7 30.05 1018 10 16 0.00 0.00
5:53 am 05:53 Clear 42 5.6 40 4.4 92 92 NNW 5 7 30.05 1018 10 16 0.00 0.00
6:53 am 06:53 Sunny 41 5 39 3.9 93 93 NNW 3 6 30.07 1018 10 16 0.00 0.00
7:53 am 07:53 Sunny 44 6.7 41 5 89 89 NW 7 11 30.09 1019 10 16 0.00 0.00
8:53 am 08:53 Partly Cloudy 46 7.8 42 5.6 86 86 WNW 5 7 30.10 1019 9 14 0.00 0.00
9:53 am 09:53 Mostly Cloudy 53 11.7 43 6.1 69 69 NW 5 7 30.11 1020 10 16 0.00 0.00
10:53 am 10:53 Sunny 57 13.9 43 6.1 60 60 Calm 30.10 1019 10 16 0.00 0.00
11:53 am 11:53 Sunny 60 15.6 44 6.7 56 56 Calm 30.07 1018 10 16 0.00 0.00
12:53 pm 12:53 Sunny 62 16.7 45 7.2 54 54 VRB 5 7 30.05 1018 10 16 0.00 0.00
1:53 pm 13:53 Sunny 65 18.3 46 7.8 51 51 ESE 6 9 30.02 1017 10 16 0.00 0.00
2:53 pm 14:53 Sunny 67 19.4 46 7.8 47 47 S 6 9 30.00 1016 10 16 0.00 0.00
3:53 pm 15:53 Partly Cloudy 67 19.4 48 8.9 51 51 SE 9 15 29.98 1015 10 16 0.00 0.00
4:53 pm 16:53 Mostly Cloudy 68 20 49 9.4 51 51 SE 9 15 29.98 1015 10 16 0.00 0.00
5:53 pm 17:53 Partly Cloudy 66 18.9 49 9.4 54 54 SSE 14 22 29.98 1015 10 16 0.00 0.00
6:53 pm 18:53 Partly Cloudy 63 17.2 49 9.4 60 60 SE 9 15 29.99 1016 10 16 0.00 0.00
7:53 pm 19:53 Mostly Cloudy 62 16.7 50 10 65 65 Calm 29.98 1015 10 16 0.00 0.00
8:53 pm 20:53 Mostly Cloudy 59 15 50 10 72 72 ESE 6 9 30.01 1016 10 16 0.00 0.00
9:53 pm 21:53 Clear 57 13.9 49 9.4 74 74 Calm 30.00 1016 10 16 0.00 0.00
10:53 pm 22:53 Clear 53 11.7 49 9.4 86 86 NNE 3 6 29.99 1016 10 16 0.00 0.00
11:53 pm 23:53 Clear 53 11.7 48 8.9 83 83 NNE 3 6 29.98 1015 10 16 0.00 0.00

Powered by AerisWeather